Location: *
(13.2257°S, 48.7193°W)
Time: 23:35:01
(UTC+00:00)

SL-16 R/B - Pass Details

Date: 25 May 2026
Orbit: 984 x 1007 km, 99.8° (Epoch: 7 June)

Event Time Altitude Azimuth Distance (km) Brightness Sun altitude
Rises 08:29:17 0° 179° (S) 3,746 5.4 -14.5°
Reaches altitude 10° 08:31:55 10° 186° (S) 2,792 4.7 -13.9°
Maximum altitude 08:37:44 41° 254° (WSW) 1,431 2.9 -12.5°
Drops below altitude 10° 08:43:30 10° 322° (NW) 2,769 4.7 -11.2°
Sets 08:46:07 0° 329° (NNW) 3,712 5.4 -10.6°
